BWA212 TTCP-TBPB

Flight info

Callsign BWA212
Flight time 0h 39m
Altitude 15000
Route TAB R515 BGI
Aircraft AT76/M-MSDFGRSB1/S

Departure

Time 2026-05-06 20:10
Airport A.N.R. Robinson International Airport (TTCP)

Arrival

Time 2026-05-06 20:49
Airport Grantley Adams International Airport (TBPB)
Time Latitude Longitude Altitude Speed Heading
2026-05-06 19:39 11.15193 -60.84003 32 ft 0 kts
2026-05-06 20:07 11.15194 -60.84003 32 ft 1 kts 356°
2026-05-06 20:08 11.15177 -60.84039 32 ft 10 kts 226°
2026-05-06 20:08 11.15132 -60.84091 31 ft 8 kts 232°
2026-05-06 20:08 11.15098 -60.84134 31 ft 10 kts 230°
2026-05-06 20:08 11.15051 -60.84192 30 ft 6 kts 231°
2026-05-06 20:09 11.15036 -60.84186 30 ft 3 kts 103°
2026-05-06 20:09 11.15036 -60.84180 30 ft 0 kts 95°
2026-05-06 20:10 11.15033 -60.84141 30 ft 29 kts 94°
2026-05-06 20:10 11.15001 -60.83694 32 ft 95 kts 94°
2026-05-06 20:10 11.14937 -60.82898 314 ft 119 kts 96°
2026-05-06 20:10 11.14847 -60.82040 939 ft 121 kts 95°
2026-05-06 20:11 11.14776 -60.81162 1252 ft 136 kts 93°
2026-05-06 20:11 11.14734 -60.80095 1310 ft 163 kts 92°
2026-05-06 20:11 11.14677 -60.78870 1480 ft 181 kts 93°
2026-05-06 20:11 11.14864 -60.77617 1831 ft 184 kts 60°
2026-05-06 20:12 11.15872 -60.76820 2196 ft 188 kts 30°
2026-05-06 20:12 11.17019 -60.76171 2553 ft 189 kts 34°
2026-05-06 20:12 11.18145 -60.75477 2944 ft 190 kts 35°
2026-05-06 20:12 11.19275 -60.74767 3309 ft 192 kts 35°
2026-05-06 20:13 11.20406 -60.74049 3685 ft 192 kts 36°
2026-05-06 20:13 11.21536 -60.73319 4031 ft 194 kts 36°
2026-05-06 20:13 11.22679 -60.72580 4392 ft 194 kts 36°
2026-05-06 20:13 11.23825 -60.71845 4732 ft 195 kts 36°
2026-05-06 20:14 11.24975 -60.71103 5048 ft 196 kts 37°
2026-05-06 20:14 11.26132 -60.70355 5387 ft 197 kts 37°
2026-05-06 20:14 11.27295 -60.69604 5690 ft 198 kts 36°
2026-05-06 20:14 11.28465 -60.68863 5983 ft 198 kts 36°
2026-05-06 20:15 11.29645 -60.68124 6272 ft 201 kts 36°
2026-05-06 20:15 11.30836 -60.67367 6555 ft 203 kts 36°
2026-05-06 20:15 11.32032 -60.66609 6848 ft 203 kts 36°
2026-05-06 20:15 11.33237 -60.65842 7117 ft 205 kts 36°
2026-05-06 20:16 11.34433 -60.65078 7390 ft 206 kts 36°
2026-05-06 20:16 11.35653 -60.64301 7653 ft 207 kts 36°
2026-05-06 20:16 11.36880 -60.63520 7892 ft 208 kts 36°
2026-05-06 20:16 11.38111 -60.62735 8135 ft 210 kts 36°
2026-05-06 20:17 11.39350 -60.61943 8373 ft 210 kts 36°
2026-05-06 20:17 11.40593 -60.61147 8598 ft 212 kts 36°
2026-05-06 20:17 11.41844 -60.60348 8818 ft 213 kts 36°
2026-05-06 20:17 11.43103 -60.59549 9029 ft 214 kts 36°
2026-05-06 20:18 11.44370 -60.58743 9221 ft 215 kts 36°
2026-05-06 20:18 11.45635 -60.57934 9424 ft 215 kts 36°
2026-05-06 20:18 11.46903 -60.57123 9626 ft 216 kts 36°
2026-05-06 20:18 11.48175 -60.56308 9849 ft 216 kts 36°
2026-05-06 20:19 11.49448 -60.55498 10061 ft 216 kts 35°
2026-05-06 20:19 11.50725 -60.54682 10248 ft 216 kts 35°
2026-05-06 20:19 11.52003 -60.53867 10439 ft 217 kts 35°
2026-05-06 20:19 11.53285 -60.53050 10632 ft 218 kts 35°
2026-05-06 20:20 11.54569 -60.52229 10827 ft 218 kts 35°
2026-05-06 20:20 11.55854 -60.51406 11020 ft 219 kts 35°
2026-05-06 20:20 11.56712 -60.50857 11150 ft 219 kts 34°
2026-05-06 20:20 11.58427 -60.49762 11405 ft 220 kts 34°
2026-05-06 20:21 11.59723 -60.48933 11590 ft 220 kts 34°
2026-05-06 20:21 11.61020 -60.48105 11772 ft 220 kts 34°
2026-05-06 20:21 11.62325 -60.47275 11971 ft 221 kts 34°
2026-05-06 20:21 11.63631 -60.46443 12169 ft 221 kts 34°
2026-05-06 20:22 11.64496 -60.45890 12294 ft 222 kts 34°
2026-05-06 20:22 11.65807 -60.45051 12467 ft 223 kts 34°
2026-05-06 20:22 11.67120 -60.44210 12641 ft 224 kts 34°
2026-05-06 20:22 11.68438 -60.43365 12812 ft 224 kts 34°
2026-05-06 20:23 11.69762 -60.42519 12977 ft 225 kts 33°
2026-05-06 20:23 11.71091 -60.41667 13131 ft 226 kts 33°
2026-05-06 20:23 11.72423 -60.40817 13280 ft 226 kts 33°
2026-05-06 20:23 11.73761 -60.39964 13425 ft 227 kts 33°
2026-05-06 20:24 11.75099 -60.39105 13561 ft 228 kts 33°
2026-05-06 20:24 11.76442 -60.38245 13698 ft 228 kts 33°
2026-05-06 20:24 11.77792 -60.37380 13840 ft 229 kts 33°
2026-05-06 20:24 11.79144 -60.36517 13985 ft 230 kts 33°
2026-05-06 20:25 11.80500 -60.35651 14134 ft 231 kts 33°
2026-05-06 20:25 11.81862 -60.34778 14293 ft 231 kts 33°
2026-05-06 20:25 11.83226 -60.33903 14443 ft 232 kts 33°
2026-05-06 20:25 11.84597 -60.33024 14582 ft 233 kts 33°
2026-05-06 20:26 11.85970 -60.32146 14711 ft 234 kts 33°
2026-05-06 20:26 11.87351 -60.31261 14842 ft 234 kts 33°
2026-05-06 20:26 11.88716 -60.30386 14933 ft 236 kts 33°
2026-05-06 20:26 11.90139 -60.29473 14973 ft 240 kts 33°
2026-05-06 20:27 11.91548 -60.28572 14991 ft 244 kts 33°
2026-05-06 20:27 11.92996 -60.27644 15002 ft 247 kts 33°
2026-05-06 20:27 11.94464 -60.26704 15006 ft 250 kts 33°
2026-05-06 20:27 11.95945 -60.25754 15006 ft 252 kts 33°
2026-05-06 20:28 11.97440 -60.24796 15007 ft 254 kts 33°
2026-05-06 20:28 11.98938 -60.23836 15007 ft 255 kts 33°
2026-05-06 20:28 12.00449 -60.22867 15007 ft 256 kts 32°
2026-05-06 20:28 12.01963 -60.21897 15007 ft 257 kts 33°
2026-05-06 20:29 12.03476 -60.20926 15007 ft 258 kts 33°
2026-05-06 20:29 12.04997 -60.19951 15007 ft 258 kts 32°
2026-05-06 20:29 12.06499 -60.18987 15007 ft 258 kts 32°
2026-05-06 20:29 12.08022 -60.18011 15007 ft 258 kts 32°
2026-05-06 20:30 12.09546 -60.17034 15007 ft 258 kts 33°
2026-05-06 20:30 12.12591 -60.15078 15008 ft 258 kts 33°
2026-05-06 20:30 12.14112 -60.14107 15008 ft 258 kts 32°
2026-05-06 20:31 12.15653 -60.13167 15008 ft 258 kts 31°
2026-05-06 20:31 12.17203 -60.12245 15007 ft 257 kts 31°
2026-05-06 20:31 12.18745 -60.11326 15008 ft 257 kts 31°
2026-05-06 20:31 12.20292 -60.10407 15009 ft 257 kts 31°
2026-05-06 20:32 12.21835 -60.09488 15008 ft 257 kts 31°
2026-05-06 20:32 12.23381 -60.08569 15008 ft 257 kts 31°
2026-05-06 20:32 12.24928 -60.07649 15008 ft 257 kts 31°
2026-05-06 20:32 12.26480 -60.06725 15010 ft 258 kts 31°
2026-05-06 20:33 12.28033 -60.05800 15011 ft 258 kts 31°
2026-05-06 20:33 12.29585 -60.04878 15015 ft 259 kts 31°
2026-05-06 20:33 12.31142 -60.03952 15014 ft 259 kts 31°
2026-05-06 20:33 12.32705 -60.03021 15015 ft 259 kts 31°
2026-05-06 20:34 12.34241 -60.02108 15016 ft 259 kts 31°
2026-05-06 20:34 12.35798 -60.01178 15017 ft 259 kts 31°
2026-05-06 20:34 12.37359 -60.00252 14954 ft 261 kts 31°
2026-05-06 20:34 12.38942 -59.99308 14828 ft 265 kts 31°
2026-05-06 20:35 12.40544 -59.98353 14705 ft 268 kts 31°
2026-05-06 20:35 12.42164 -59.97386 14581 ft 270 kts 31°
2026-05-06 20:35 12.43797 -59.96413 14456 ft 272 kts 31°
2026-05-06 20:35 12.45431 -59.95437 14330 ft 273 kts 31°
2026-05-06 20:36 12.47080 -59.94457 14204 ft 274 kts 31°
2026-05-06 20:36 12.48725 -59.93474 14087 ft 274 kts 31°
2026-05-06 20:36 12.50374 -59.92490 13971 ft 275 kts 31°
2026-05-06 20:36 12.52038 -59.91498 13708 ft 280 kts 31°
2026-05-06 20:37 12.53743 -59.90481 13326 ft 287 kts 31°
2026-05-06 20:37 12.55481 -59.89447 12951 ft 291 kts 31°
2026-05-06 20:37 12.57234 -59.88399 12576 ft 290 kts 31°
2026-05-06 20:37 12.58955 -59.87374 12196 ft 283 kts 31°
2026-05-06 20:38 12.60636 -59.86369 11816 ft 278 kts 32°
2026-05-06 20:38 12.62276 -59.85392 11461 ft 275 kts 31°
2026-05-06 20:38 12.63922 -59.84411 11098 ft 273 kts 32°
2026-05-06 20:38 12.65558 -59.83434 10706 ft 271 kts 32°
2026-05-06 20:39 12.67184 -59.82460 10317 ft 269 kts 32°
2026-05-06 20:39 12.68807 -59.81492 9936 ft 272 kts 32°
2026-05-06 20:39 12.70459 -59.80503 9563 ft 277 kts 32°
2026-05-06 20:39 12.72119 -59.79511 9188 ft 276 kts 32°
2026-05-06 20:40 12.73785 -59.78519 8807 ft 278 kts 32°
2026-05-06 20:40 12.75463 -59.77516 8436 ft 279 kts 33°
2026-05-06 20:40 12.77140 -59.76511 8064 ft 279 kts 32°
2026-05-06 20:40 12.78743 -59.75551 7680 ft 258 kts 32°
2026-05-06 20:41 12.80275 -59.74637 7305 ft 252 kts 32°
2026-05-06 20:41 12.81781 -59.73738 6928 ft 251 kts 33°
2026-05-06 20:41 12.83301 -59.72829 6553 ft 255 kts 32°
2026-05-06 20:41 12.84839 -59.71930 6179 ft 249 kts 32°
2026-05-06 20:42 12.86217 -59.71110 5884 ft 216 kts 33°
2026-05-06 20:42 12.87451 -59.70376 5607 ft 195 kts 33°
2026-05-06 20:42 12.88580 -59.69710 5354 ft 180 kts 33°
2026-05-06 20:42 12.89633 -59.69093 5101 ft 172 kts 33°
2026-05-06 20:43 12.90694 -59.68469 4857 ft 179 kts 33°
2026-05-06 20:43 12.91771 -59.67826 4634 ft 176 kts 34°
2026-05-06 20:43 12.92818 -59.67202 4410 ft 180 kts 33°
2026-05-06 20:43 12.93939 -59.66525 4192 ft 194 kts 33°
2026-05-06 20:44 12.95134 -59.65807 3973 ft 203 kts 33°
2026-05-06 20:44 12.96365 -59.65072 3752 ft 204 kts 33°
2026-05-06 20:44 12.97563 -59.64356 3524 ft 190 kts 33°
2026-05-06 20:44 12.98655 -59.63706 3293 ft 175 kts 33°
2026-05-06 20:45 12.99734 -59.63062 3066 ft 186 kts 33°
2026-05-06 20:45 13.00869 -59.62374 2842 ft 185 kts 34°
2026-05-06 20:45 13.01931 -59.61726 2613 ft 171 kts 34°
2026-05-06 20:45 13.02925 -59.61121 2383 ft 162 kts 34°
2026-05-06 20:46 13.03918 -59.60526 2155 ft 172 kts 33°
2026-05-06 20:46 13.04869 -59.59822 1938 ft 156 kts 57°
2026-05-06 20:46 13.05197 -59.58857 1738 ft 135 kts 78°
2026-05-06 20:46 13.05390 -59.58025 1596 ft 110 kts 79°
2026-05-06 20:47 13.05557 -59.57287 1440 ft 110 kts 79°
2026-05-06 20:47 13.05738 -59.56497 1293 ft 117 kts 79°
2026-05-06 20:47 13.05922 -59.55697 1139 ft 108 kts 80°
2026-05-06 20:47 13.06059 -59.54982 938 ft 99 kts 82°
2026-05-06 20:48 13.06210 -59.54270 806 ft 104 kts 78°
2026-05-06 20:48 13.06405 -59.53521 694 ft 111 kts 77°
2026-05-06 20:48 13.06588 -59.52740 545 ft 114 kts 78°
2026-05-06 20:48 13.06786 -59.51954 395 ft 112 kts 77°
2026-05-06 20:49 13.06975 -59.51194 272 ft 109 kts 77°
2026-05-06 20:49 13.07166 -59.50424 194 ft 113 kts 77°
2026-05-06 20:49 13.07340 -59.49713 173 ft 91 kts 77°
2026-05-06 20:49 13.07458 -59.49227 172 ft 33 kts 76°
2026-05-06 20:50 13.07507 -59.49038 172 ft 24 kts 65°
2026-05-06 20:50 13.07600 -59.48924 172 ft 18 kts 46°
2026-05-06 20:50 13.07674 -59.48849 173 ft 12 kts 33°
2026-05-06 20:50 13.07749 -59.48850 174 ft 11 kts 347°
2026-05-06 20:51 13.07823 -59.48870 174 ft 9 kts 345°
2026-05-06 20:51 13.07856 -59.48878 174 ft 2 kts 345°
2026-05-06 20:51 13.07857 -59.48878 174 ft 0 kts 345°